This demonstration page uses our WeatherBlox Daily Observations layout. Learn more.

Left ArrowRight Arrow

Hourly Observations for June 4, 2020

Temp ( °F °C ) Dew Point ( °F °C ) Humidity (%) Winds ( mph kmh ) Pressure ( in mb ) Visibility ( mi km ) Precip ( " mm )
12:56 am 00:56 Clear 77 24.9 59 14.9 54 54 SW 22 35 29.72 1007 10 16 0.00 0.00
1:12 am 01:12 Partly Cloudy with Light Rain 72 22 61 16 69 69 W 15 24 29.69 1006 10 16 0.00 0.00
1:26 am 01:26 Mostly Cloudy with Rain 79 26 50 10 37 37 SW 25 41 29.68 1005 10 16 0.00 0.00
1:28 am 01:28 Mostly Cloudy with Rain 81 27 48 9 32 32 W 16 26 29.69 1005 10 16 0.00 0.00
1:30 am 01:30 Mostly Cloudy with Rain 81 27 50 10 34 34 NW 15 24 29.70 1006 10 16 0.00 0.00
1:56 am 01:56 Mostly Cloudy 73 22.8 61 16.3 67 67 W 5 7 29.71 1006 10 16 0.01 0.25
2:56 am 02:56 Clear 74 23.1 57 13.8 56 56 WNW 9 15 29.71 1006 10 16 0.00 0.00
3:56 am 03:56 Clear 71 21.7 58 14.6 64 64 NW 5 7 29.72 1007 10 16 0.00 0.00
4:56 am 04:56 Clear 67 19.6 59 15.2 76 76 WNW 9 15 29.71 1006 10 16 0.00 0.00
5:56 am 05:56 Sunny 66 18.8 60 15.3 80 80 Calm 29.72 1007 10 16 0.00 0.00
6:56 am 06:56 Sunny 68 19.8 61 16 79 79 SW 7 11 29.77 1008 10 16 0.00 0.00
7:56 am 07:56 Sunny 71 21.6 63 17.2 76 76 WSW 6 9 29.78 1008 10 16 0.00 0.00
8:56 am 08:56 undefined 74 23.1 64 18 73 73 SW 8 13 29.80 1009 10 16 0.00 0.00
10:56 am 10:56 Sunny 80 26.8 65 18.4 60 60 SW 12 19 29.80 1009 10 16 0.00 0.00
11:56 am 11:56 Sunny 83 28.2 64 17.7 53 53 WSW 9 15 29.78 1009 10 16 0.00 0.00
12:56 pm 12:56 Sunny 86 29.9 62 16.6 45 45 SW 6 9 29.77 1008 10 16 0.00 0.00
1:56 pm 13:56 Sunny 88 31.1 64 17.7 45 45 Calm 29.74 1007 10 16 0.00 0.00
2:56 pm 14:56 Sunny 90 32.2 62 16.5 39 39 WSW 8 13 29.73 1007 10 16 0.00 0.00
3:56 pm 15:56 Sunny 91 32.7 62 16.5 38 38 S 9 15 29.71 1006 10 16 0.00 0.00
4:56 pm 16:56 Sunny 92 33.1 60 15.6 35 35 S 12 19 29.70 1006 10 16 0.00 0.00
5:56 pm 17:56 Sunny 91 32.9 64 17.9 41 41 SSW 9 15 29.70 1006 10 16 0.00 0.00
6:56 pm 18:56 Sunny 90 32 67 19.2 47 47 S 9 15 29.68 1005 10 16 0.00 0.00
7:56 pm 19:56 Sunny 87 30.3 70 21.1 58 58 S 8 13 29.70 1006 10 16 0.00 0.00
8:56 pm 20:56 Clear 83 28.3 69 20.8 64 64 SE 8 13 29.68 1005 10 16 0.00 0.00
9:56 pm 21:56 Clear 81 27.1 71 21.4 71 71 SE 8 13 29.70 1006 10 16 0.00 0.00
10:56 pm 22:56 Clear 79 26.3 72 22.1 78 78 SE 8 13 29.72 1007 10 16 0.00 0.00
11:56 pm 23:56 Clear 80 26.9 72 22.1 75 75 S 8 13 29.73 1007 10 16 0.00 0.00

Powered by AerisWeather